Location: Newark
(22.3060°N, 114.2134°E)
Time: 00:51:37
(UTC+00:00)

Vanguard 2 - Pass Details

Date: 12 August 2021
Orbit: 553 x 2937 km, 32.9° (Epoch: 27 September)

Event Time Altitude Azimuth Distance (km) Brightness Sun altitude
Rises 19:24:41 0° 293° (WNW) 3,266 - -33.1°
Reaches altitude 10° 19:27:58 10° 310° (NW) 2,083 - -32.5°
Maximum altitude 19:31:22 20° 359° (N) 1,359 - -31.8°
Exits shadow 19:32:06 19° 14° (NNE) 1,372 9.3 -31.7°
Drops below altitude 10° 19:34:24 10° 50° (NE) 1,822 10.3 -31.3°
Sets 19:37:02 0° 68° (ENE) 2,726 11.5 -30.7°
